owner,sensor,date,latitude,longitude,air_temperature,qcFlag 
NDBC,ioos:station:NOAA.NDBC:FWYF1:1,2016-05-13T02:00:00Z,25.5910,-80.0970,25.6,1111122 
NDBC,ioos:station:NOAA.NDBC:FWYF1:1,2016-05-13T03:00:00Z,25.5910,-80.0970,25.7,1111122 
NDBC,ioos:station:NOAA.NDBC:FWYF1:1,2016-05-13T04:00:00Z,25.5910,-80.0970,25.7,1111122 
NDBC,ioos:station:NOAA.NDBC:FWYF1:1,2016-05-13T05:00:00Z,25.5910,-80.0970,25.5,1111122 
NDBC,ioos:station:NOAA.NDBC:FWYF1:1,2016-05-13T07:00:00Z,25.5910,-80.0970,25.4,1111122 
NDBC,ioos:station:NOAA.NDBC:FWYF1:1,2016-05-13T08:00:00Z,25.5910,-80.0970,25.3,1111122 
NDBC,ioos:station:NOAA.NDBC:FWYF1:1,2016-05-13T10:00:00Z,25.5910,-80.0970,25.2,1111122 
NDBC,ioos:station:NOAA.NDBC:FWYF1:1,2016-05-13T11:00:00Z,25.5910,-80.0970,25.4,1111122 
NDBC,ioos:station:NOAA.NDBC:FWYF1:1,2016-05-13T12:00:00Z,25.5910,-80.0970,25.9,1111122 
NDBC,ioos:station:NOAA.NDBC:FWYF1:1,2016-05-13T14:00:00Z,25.5910,-80.0970,25.9,1111122 
NDBC,ioos:station:NOAA.NDBC:FWYF1:1,2016-05-13T15:00:00Z,25.5910,-80.0970,25.8,1111122 
NDBC,ioos:station:NOAA.NDBC:FWYF1:1,2016-05-13T18:00:00Z,25.5910,-80.0970,26.0,1111122 
NDBC,ioos:station:NOAA.NDBC:FWYF1:1,2016-05-13T20:00:00Z,25.5910,-80.0970,26.2,1111122 
NDBC,ioos:station:NOAA.NDBC:FWYF1:1,2016-05-13T21:00:00Z,25.5910,-80.0970,26.5,1111122 
NDBC,ioos:station:NOAA.NDBC:FWYF1:1,2016-05-13T23:00:00Z,25.5910,-80.0970,26.4,1111122 
NDBC,ioos:station:NOAA.NDBC:FWYF1:1,2016-05-14T00:00:00Z,25.5910,-80.0970,26.0,1111122 
NDBC,ioos:station:NOAA.NDBC:FWYF1:1,2016-05-14T01:00:00Z,25.5910,-80.0970,25.9,1111122 
NDBC,ioos:station:NOAA.NDBC:FWYF1:1,2016-05-14T02:00:00Z,25.5910,-80.0970,25.9,1111122 
NDBC,ioos:station:NOAA.NDBC:FWYF1:1,2016-05-14T03:00:00Z,25.5910,-80.0970,25.8,1111122 
NDBC,ioos:station:NOAA.NDBC:FWYF1:1,2016-05-14T05:00:00Z,25.5910,-80.0970,25.7,1111122 
NDBC,ioos:station:NOAA.NDBC:FWYF1:1,2016-05-14T06:00:00Z,25.5910,-80.0970,25.7,1111122 
NDBC,ioos:station:NOAA.NDBC:FWYF1:1,2016-05-14T07:00:00Z,25.5910,-80.0970,25.6,1111122 
NDBC,ioos:station:NOAA.NDBC:FWYF1:1,2016-05-14T08:00:00Z,25.5910,-80.0970,25.6,1111122 
NDBC,ioos:station:NOAA.NDBC:FWYF1:1,2016-05-14T09:00:00Z,25.5910,-80.0970,25.6,1111122 
NDBC,ioos:station:NOAA.NDBC:FWYF1:1,2016-05-14T11:00:00Z,25.5910,-80.0970,25.9,1111122 
NDBC,ioos:station:NOAA.NDBC:FWYF1:1,2016-05-14T12:00:00Z,25.5910,-80.0970,26.2,1111122 
NDBC,ioos:station:NOAA.NDBC:FWYF1:1,2016-05-14T14:00:00Z,25.5910,-80.0970,26.7,1111122 
NDBC,ioos:station:NOAA.NDBC:FWYF1:1,2016-05-14T15:00:00Z,25.5910,-80.0970,27.1,1111122 
NDBC,ioos:station:NOAA.NDBC:FWYF1:1,2016-05-14T16:00:00Z,25.5910,-80.0970,27.7,1111122 
NDBC,ioos:station:NOAA.NDBC:FWYF1:1,2016-05-14T17:00:00Z,25.5910,-80.0970,27.3,1111122 
NDBC,ioos:station:NOAA.NDBC:FWYF1:1,2016-05-14T19:00:00Z,25.5910,-80.0970,26.6,1111122 
NDBC,ioos:station:NOAA.NDBC:FWYF1:1,2016-05-14T20:00:00Z,25.5910,-80.0970,27.3,1111122 
NDBC,ioos:station:NOAA.NDBC:FWYF1:1,2016-05-14T21:00:00Z,25.5910,-80.0970,27.4,1111122 
NDBC,ioos:station:NOAA.NDBC:FWYF1:1,2016-05-14T22:00:00Z,25.5910,-80.0970,28.2,1111122 
NDBC,ioos:station:NOAA.NDBC:FWYF1:1,2016-05-15T01:00:00Z,25.5910,-80.0970,27.3,1111122 
NDBC,ioos:station:NOAA.NDBC:FWYF1:1,2016-05-15T02:00:00Z,25.5910,-80.0970,27.4,1111122 
NDBC,ioos:station:NOAA.NDBC:FWYF1:1,2016-05-15T03:00:00Z,25.5910,-80.0970,27.0,1111122 
NDBC,ioos:station:NOAA.NDBC:FWYF1:1,2016-05-15T04:00:00Z,25.5910,-80.0970,26.5,1111122 
NDBC,ioos:station:NOAA.NDBC:FWYF1:1,2016-05-15T06:00:00Z,25.5910,-80.0970,26.5,1111122 
NDBC,ioos:station:NOAA.NDBC:FWYF1:1,2016-05-15T07:00:00Z,25.5910,-80.0970,26.5,1111122 
NDBC,ioos:station:NOAA.NDBC:FWYF1:1,2016-05-15T08:00:00Z,25.5910,-80.0970,26.2,1111122 
NDBC,ioos:station:NOAA.NDBC:FWYF1:1,2016-05-15T09:00:00Z,25.5910,-80.0970,25.8,1111122 
NDBC,ioos:station:NOAA.NDBC:FWYF1:1,2016-05-15T10:00:00Z,25.5910,-80.0970,25.4,1111122 
NDBC,ioos:station:NOAA.NDBC:FWYF1:1,2016-05-15T12:00:00Z,25.5910,-80.0970,25.2,1111122 
NDBC,ioos:station:NOAA.NDBC:FWYF1:1,2016-05-15T15:00:00Z,25.5910,-80.0970,25.8,1111122 
NDBC,ioos:station:NOAA.NDBC:FWYF1:1,2016-05-15T17:00:00Z,25.5910,-80.0970,26.1,1111122 
NDBC,ioos:station:NOAA.NDBC:FWYF1:1,2016-05-15T19:00:00Z,25.5910,-80.0970,26.7,1111122 
NDBC,ioos:station:NOAA.NDBC:FWYF1:1,2016-05-15T20:00:00Z,25.5910,-80.0970,26.9,1111122 
NDBC,ioos:station:NOAA.NDBC:FWYF1:1,2016-05-15T21:00:00Z,25.5910,-80.0970,27.0,1111122 
NDBC,ioos:station:NOAA.NDBC:FWYF1:1,2016-05-15T22:00:00Z,25.5910,-80.0970,27.1,1111122 
NDBC,ioos:station:NOAA.NDBC:FWYF1:1,2016-05-15T23:00:00Z,25.5910,-80.0970,27.0,1111122 
NDBC,ioos:station:NOAA.NDBC:FWYF1:1,2016-05-16T00:00:00Z,25.5910,-80.0970,27.0,1111122 
NDBC,ioos:station:NOAA.NDBC:FWYF1:1,2016-05-16T02:00:00Z,25.5910,-80.0970,27.1,1111122 
NDBC,ioos:station:NOAA.NDBC:FWYF1:1,2016-05-16T03:00:00Z,25.5910,-80.0970,27.3,1111122 
NDBC,ioos:station:NOAA.NDBC:FWYF1:1,2016-05-16T04:00:00Z,25.5910,-80.0970,27.2,1111122 
NDBC,ioos:station:NOAA.NDBC:FWYF1:1,2016-05-16T07:00:00Z,25.5910,-80.0970,26.7,1111122 
NDBC,ioos:station:NOAA.NDBC:FWYF1:1,2016-05-16T08:00:00Z,25.5910,-80.0970,26.8,1111122 
NDBC,ioos:station:NOAA.NDBC:FWYF1:1,2016-05-16T09:00:00Z,25.5910,-80.0970,26.8,1111122 
NDBC,ioos:station:NOAA.NDBC:FWYF1:1,2016-05-16T10:00:00Z,25.5910,-80.0970,26.8,1111122 
NDBC,ioos:station:NOAA.NDBC:FWYF1:1,2016-05-16T11:00:00Z,25.5910,-80.0970,26.8,1111122 
NDBC,ioos:station:NOAA.NDBC:FWYF1:1,2016-05-16T12:00:00Z,25.5910,-80.0970,27.1,1111122 
NDBC,ioos:station:NOAA.NDBC:FWYF1:1,2016-05-16T13:00:00Z,25.5910,-80.0970,27.2,1111122 
NDBC,ioos:station:NOAA.NDBC:FWYF1:1,2016-05-16T15:00:00Z,25.5910,-80.0970,27.1,1111122 
NDBC,ioos:station:NOAA.NDBC:FWYF1:1,2016-05-16T18:00:00Z,25.5910,-80.0970,27.2,1111122 
NDBC,ioos:station:NOAA.NDBC:FWYF1:1,2016-05-16T20:00:00Z,25.5910,-80.0970,27.2,1111122 
NDBC,ioos:station:NOAA.NDBC:FWYF1:1,2016-05-16T21:00:00Z,25.5910,-80.0970,27.1,1111122 
NDBC,ioos:station:NOAA.NDBC:FWYF1:1,2016-05-16T23:00:00Z,25.5910,-80.0970,27.2,1111122 
NDBC,ioos:station:NOAA.NDBC:FWYF1:1,2016-05-17T00:00:00Z,25.5910,-80.0970,27.0,1111122 
NDBC,ioos:station:NOAA.NDBC:FWYF1:1,2016-05-17T01:00:00Z,25.5910,-80.0970,27.0,1111122 
NDBC,ioos:station:NOAA.NDBC:FWYF1:1,2016-05-17T02:00:00Z,25.5910,-80.0970,27.1,1111122 
NDBC,ioos:station:NOAA.NDBC:FWYF1:1,2016-05-17T03:00:00Z,25.5910,-80.0970,27.3,1111122 
NDBC,ioos:station:NOAA.NDBC:FWYF1:1,2016-05-17T04:00:00Z,25.5910,-80.0970,27.2,1111122 
NDBC,ioos:station:NOAA.NDBC:FWYF1:1,2016-05-17T06:00:00Z,25.5910,-80.0970,27.2,1111122 
NDBC,ioos:station:NOAA.NDBC:FWYF1:1,2016-05-17T07:00:00Z,25.5910,-80.0970,27.0,1111122 
NDBC,ioos:station:NOAA.NDBC:FWYF1:1,2016-05-17T08:00:00Z,25.5910,-80.0970,27.1,1111122 
NDBC,ioos:station:NOAA.NDBC:FWYF1:1,2016-05-17T10:00:00Z,25.5910,-80.0970,27.2,1111122 
NDBC,ioos:station:NOAA.NDBC:FWYF1:1,2016-05-17T11:00:00Z,25.5910,-80.0970,27.2,1111122 
NDBC,ioos:station:NOAA.NDBC:FWYF1:1,2016-05-17T13:00:00Z,25.5910,-80.0970,27.4,1111122 
NDBC,ioos:station:NOAA.NDBC:FWYF1:1,2016-05-17T15:00:00Z,25.5910,-80.0970,27.5,1111122 
NDBC,ioos:station:NOAA.NDBC:FWYF1:1,2016-05-17T16:00:00Z,25.5910,-80.0970,27.5,1111122 
NDBC,ioos:station:NOAA.NDBC:FWYF1:1,2016-05-17T18:00:00Z,25.5910,-80.0970,27.3,1111122 
NDBC,ioos:station:NOAA.NDBC:FWYF1:1,2016-05-17T19:00:00Z,25.5910,-80.0970,27.5,1111122 
NDBC,ioos:station:NOAA.NDBC:FWYF1:1,2016-05-17T20:00:00Z,25.5910,-80.0970,27.5,1111122 
NDBC,ioos:station:NOAA.NDBC:FWYF1:1,2016-05-17T22:00:00Z,25.5910,-80.0970,27.7,1111122 
NDBC,ioos:station:NOAA.NDBC:FWYF1:1,2016-05-17T23:00:00Z,25.5910,-80.0970,27.6,1111122 
NDBC,ioos:station:NOAA.NDBC:FWYF1:1,2016-05-18T00:00:00Z,25.5910,-80.0970,27.4,1111122 
NDBC,ioos:station:NOAA.NDBC:FWYF1:1,2016-05-18T01:00:00Z,25.5910,-80.0970,27.3,1111122 
NDBC,ioos:station:NOAA.NDBC:FWYF1:1,2016-05-18T04:00:00Z,25.5910,-80.0970,27.5,1111122 
NDBC,ioos:station:NOAA.NDBC:FWYF1:1,2016-05-18T05:00:00Z,25.5910,-80.0970,27.4,1111122 
NDBC,ioos:station:NOAA.NDBC:FWYF1:1,2016-05-18T06:00:00Z,25.5910,-80.0970,27.5,1111122 
NDBC,ioos:station:NOAA.NDBC:FWYF1:1,2016-05-18T07:00:00Z,25.5910,-80.0970,27.4,1111122 
NDBC,ioos:station:NOAA.NDBC:FWYF1:1,2016-05-18T08:00:00Z,25.5910,-80.0970,27.3,1111122 
NDBC,ioos:station:NOAA.NDBC:FWYF1:1,2016-05-18T11:00:00Z,25.5910,-80.0970,27.2,1111122 
NDBC,ioos:station:NOAA.NDBC:FWYF1:1,2016-05-18T12:00:00Z,25.5910,-80.0970,26.9,1111122 
NDBC,ioos:station:NOAA.NDBC:FWYF1:1,2016-05-18T13:00:00Z,25.5910,-80.0970,27.7,1111122 
NDBC,ioos:station:NOAA.NDBC:FWYF1:1,2016-05-18T14:00:00Z,25.5910,-80.0970,29.0,1111122 
NDBC,ioos:station:NOAA.NDBC:FWYF1:1,2016-05-18T15:00:00Z,25.5910,-80.0970,28.7,1111122 
NDBC,ioos:station:NOAA.NDBC:FWYF1:1,2016-05-18T16:00:00Z,25.5910,-80.0970,28.2,1111122 
NDBC,ioos:station:NOAA.NDBC:FWYF1:1,2016-05-18T17:00:00Z,25.5910,-80.0970,27.1,1111122 
NDBC,ioos:station:NOAA.NDBC:FWYF1:1,2016-05-18T19:00:00Z,25.5910,-80.0970,25.1,1111122 
NDBC,ioos:station:NOAA.NDBC:FWYF1:1,2016-05-18T20:00:00Z,25.5910,-80.0970,24.9,1111122 
NDBC,ioos:station:NOAA.NDBC:FWYF1:1,2016-05-18T22:00:00Z,25.5910,-80.0970,25.9,1111122 
NDBC,ioos:station:NOAA.NDBC:FWYF1:1,2016-05-18T23:00:00Z,25.5910,-80.0970,25.8,1111122 
NDBC,ioos:station:NOAA.NDBC:FWYF1:1,2016-05-19T00:00:00Z,25.5910,-80.0970,25.2,1111122 
NDBC,ioos:station:NOAA.NDBC:FWYF1:1,2016-05-19T01:00:00Z,25.5910,-80.0970,26.2,1111122 
NDBC,ioos:station:NOAA.NDBC:FWYF1:1,2016-05-19T02:00:00Z,25.5910,-80.0970,25.3,1111122 
NDBC,ioos:station:NOAA.NDBC:FWYF1:1,2016-05-19T03:00:00Z,25.5910,-80.0970,25.6,1111122 
NDBC,ioos:station:NOAA.NDBC:FWYF1:1,2016-05-19T04:00:00Z,25.5910,-80.0970,25.5,1111122 
NDBC,ioos:station:NOAA.NDBC:FWYF1:1,2016-05-19T07:00:00Z,25.5910,-80.0970,24.4,1111122 
NDBC,ioos:station:NOAA.NDBC:FWYF1:1,2016-05-19T10:00:00Z,25.5910,-80.0970,25.4,1111122 
NDBC,ioos:station:NOAA.NDBC:FWYF1:1,2016-05-19T11:00:00Z,25.5910,-80.0970,25.7,1111122 
NDBC,ioos:station:NOAA.NDBC:FWYF1:1,2016-05-19T12:00:00Z,25.5910,-80.0970,25.3,1111122 
NDBC,ioos:station:NOAA.NDBC:FWYF1:1,2016-05-19T13:00:00Z,25.5910,-80.0970,25.6,1111122 
NDBC,ioos:station:NOAA.NDBC:FWYF1:1,2016-05-19T22:00:00Z,25.5910,-80.0970,26.6,1111122 
NDBC,ioos:station:NOAA.NDBC:FWYF1:1,2016-05-19T23:00:00Z,25.5910,-80.0970,26.9,1111122 
NDBC,ioos:station:NOAA.NDBC:FWYF1:1,2016-05-20T00:00:00Z,25.5910,-80.0970,27.0,1111122 
NDBC,ioos:station:NOAA.NDBC:FWYF1:1,2016-05-20T01:00:00Z,25.5910,-80.0970,27.1,1111122 
NDBC,ioos:station:NOAA.NDBC:FWYF1:1,2016-05-20T02:00:00Z,25.5910,-80.0970,27.2,1111122 
NDBC,ioos:station:NOAA.NDBC:FWYF1:1,2016-05-20T03:00:00Z,25.5910,-80.0970,27.2,1111122 
NDBC,ioos:station:NOAA.NDBC:FWYF1:1,2016-05-20T04:00:00Z,25.5910,-80.0970,27.2,1111122 
NDBC,ioos:station:NOAA.NDBC:FWYF1:1,2016-05-20T05:00:00Z,25.5910,-80.0970,27.3,1111122 
NDBC,ioos:station:NOAA.NDBC:FWYF1:1,2016-05-20T06:00:00Z,25.5910,-80.0970,27.3,1111122 
NDBC,ioos:station:NOAA.NDBC:FWYF1:1,2016-05-20T07:00:00Z,25.5910,-80.0970,27.2,1111122 
NDBC,ioos:station:NOAA.NDBC:FWYF1:1,2016-05-20T08:00:00Z,25.5910,-80.0970,27.3,1111122 
NDBC,ioos:station:NOAA.NDBC:FWYF1:1,2016-05-20T09:00:00Z,25.5910,-80.0970,27.2,1111122 
NDBC,ioos:station:NOAA.NDBC:FWYF1:1,2016-05-20T10:00:00Z,25.5910,-80.0970,27.3,1111122 
NDBC,ioos:station:NOAA.NDBC:FWYF1:1,2016-05-20T11:00:00Z,25.5910,-80.0970,27.3,1111122 
NDBC,ioos:station:NOAA.NDBC:FWYF1:1,2016-05-20T12:00:00Z,25.5910,-80.0970,27.6,1111122 
NDBC,ioos:station:NOAA.NDBC:FWYF1:1,2016-05-20T13:00:00Z,25.5910,-80.0970,28.2,1111122 
NDBC,ioos:station:NOAA.NDBC:FWYF1:1,2016-05-20T14:00:00Z,25.5910,-80.0970,28.6,1111122 
NDBC,ioos:station:NOAA.NDBC:FWYF1:1,2016-05-20T15:00:00Z,25.5910,-80.0970,28.9,1111122 
NDBC,ioos:station:NOAA.NDBC:FWYF1:1,2016-05-20T16:00:00Z,25.5910,-80.0970,28.4,1111122 
NDBC,ioos:station:NOAA.NDBC:FWYF1:1,2016-05-20T17:00:00Z,25.5910,-80.0970,27.7,1111122 
NDBC,ioos:station:NOAA.NDBC:FWYF1:1,2016-05-20T18:00:00Z,25.5910,-80.0970,27.8,1111122 
NDBC,ioos:station:NOAA.NDBC:FWYF1:1,2016-05-20T19:00:00Z,25.5910,-80.0970,27.8,1111122 
NDBC,ioos:station:NOAA.NDBC:FWYF1:1,2016-05-20T20:00:00Z,25.5910,-80.0970,27.8,1111122 
NDBC,ioos:station:NOAA.NDBC:FWYF1:1,2016-05-20T21:00:00Z,25.5910,-80.0970,27.6,1111122 
NDBC,ioos:station:NOAA.NDBC:FWYF1:1,2016-05-20T22:00:00Z,25.5910,-80.0970,27.6,1111122 
NDBC,ioos:station:NOAA.NDBC:FWYF1:1,2016-05-20T23:00:00Z,25.5910,-80.0970,27.6,1111122 
NDBC,ioos:station:NOAA.NDBC:FWYF1:1,2016-05-21T00:00:00Z,25.5910,-80.0970,27.7,1111122 
NDBC,ioos:station:NOAA.NDBC:FWYF1:1,2016-05-21T01:00:00Z,25.5910,-80.0970,27.7,1111122 
NDBC,ioos:station:NOAA.NDBC:FWYF1:1,2016-05-21T02:00:00Z,25.5910,-80.0970,27.7,1111122 
NDBC,ioos:station:NOAA.NDBC:FWYF1:1,2016-05-21T03:00:00Z,25.5910,-80.0970,27.5,1111122 
NDBC,ioos:station:NOAA.NDBC:FWYF1:1,2016-05-21T04:00:00Z,25.5910,-80.0970,27.4,1111122 
NDBC,ioos:station:NOAA.NDBC:FWYF1:1,2016-05-21T05:00:00Z,25.5910,-80.0970,27.4,1111122 
NDBC,ioos:station:NOAA.NDBC:FWYF1:1,2016-05-21T06:00:00Z,25.5910,-80.0970,27.2,1111122 
NDBC,ioos:station:NOAA.NDBC:FWYF1:1,2016-05-21T07:00:00Z,25.5910,-80.0970,27.3,1111122 
NDBC,ioos:station:NOAA.NDBC:FWYF1:1,2016-05-21T08:00:00Z,25.5910,-80.0970,27.3,1111122 
NDBC,ioos:station:NOAA.NDBC:FWYF1:1,2016-05-21T09:00:00Z,25.5910,-80.0970,27.1,1111122 
NDBC,ioos:station:NOAA.NDBC:FWYF1:1,2016-05-21T10:00:00Z,25.5910,-80.0970,27.2,1111122 
NDBC,ioos:station:NOAA.NDBC:FWYF1:1,2016-05-21T11:00:00Z,25.5910,-80.0970,27.4,1111122 
NDBC,ioos:station:NOAA.NDBC:FWYF1:1,2016-05-21T12:00:00Z,25.5910,-80.0970,27.5,1111122 
NDBC,ioos:station:NOAA.NDBC:FWYF1:1,2016-05-21T13:00:00Z,25.5910,-80.0970,28.8,1111122 
NDBC,ioos:station:NOAA.NDBC:FWYF1:1,2016-05-21T14:00:00Z,25.5910,-80.0970,28.8,1111122 
NDBC,ioos:station:NOAA.NDBC:FWYF1:1,2016-05-21T15:00:00Z,25.5910,-80.0970,28.7,1111122 
NDBC,ioos:station:NOAA.NDBC:FWYF1:1,2016-05-21T16:00:00Z,25.5910,-80.0970,29.7,1111122 
NDBC,ioos:station:NOAA.NDBC:FWYF1:1,2016-05-21T17:00:00Z,25.5910,-80.0970,29.3,1111122 
NDBC,ioos:station:NOAA.NDBC:FWYF1:1,2016-05-21T18:00:00Z,25.5910,-80.0970,28.9,1111122 
NDBC,ioos:station:NOAA.NDBC:FWYF1:1,2016-05-21T19:00:00Z,25.5910,-80.0970,29.0,1111122 
NDBC,ioos:station:NOAA.NDBC:FWYF1:1,2016-05-21T20:00:00Z,25.5910,-80.0970,29.0,1111122 
NDBC,ioos:station:NOAA.NDBC:FWYF1:1,2016-05-21T21:00:00Z,25.5910,-80.0970,27.7,1111122 
NDBC,ioos:station:NOAA.NDBC:FWYF1:1,2016-05-21T22:00:00Z,25.5910,-80.0970,24.6,1111122 
NDBC,ioos:station:NOAA.NDBC:FWYF1:1,2016-05-21T23:00:00Z,25.5910,-80.0970,26.5,1111122 
NDBC,ioos:station:NOAA.NDBC:FWYF1:1,2016-05-22T00:00:00Z,25.5910,-80.0970,25.8,1111122 
NDBC,ioos:station:NOAA.NDBC:FWYF1:1,2016-05-22T01:00:00Z,25.5910,-80.0970,26.6,1111122 
NDBC,ioos:station:NOAA.NDBC:FWYF1:1,2016-05-22T02:00:00Z,25.5910,-80.0970,27.2,1111122 
NDBC,ioos:station:NOAA.NDBC:FWYF1:1,2016-05-22T03:00:00Z,25.5910,-80.0970,27.8,1111122 
NDBC,ioos:station:NOAA.NDBC:FWYF1:1,2016-05-22T04:00:00Z,25.5910,-80.0970,27.6,1111122 
NDBC,ioos:station:NOAA.NDBC:FWYF1:1,2016-05-22T05:00:00Z,25.5910,-80.0970,27.3,1111122 
NDBC,ioos:station:NOAA.NDBC:FWYF1:1,2016-05-22T06:00:00Z,25.5910,-80.0970,27.0,1111122 
NDBC,ioos:station:NOAA.NDBC:FWYF1:1,2016-05-22T07:00:00Z,25.5910,-80.0970,26.8,1111122 
NDBC,ioos:station:NOAA.NDBC:FWYF1:1,2016-05-22T08:00:00Z,25.5910,-80.0970,26.5,1111122 
NDBC,ioos:station:NOAA.NDBC:FWYF1:1,2016-05-22T09:00:00Z,25.5910,-80.0970,26.1,1111122 
NDBC,ioos:station:NOAA.NDBC:FWYF1:1,2016-05-22T10:00:00Z,25.5910,-80.0970,25.8,1111122 
NDBC,ioos:station:NOAA.NDBC:FWYF1:1,2016-05-22T11:00:00Z,25.5910,-80.0970,25.7,1111122 
NDBC,ioos:station:NOAA.NDBC:FWYF1:1,2016-05-22T12:00:00Z,25.5910,-80.0970,25.7,1111122 
NDBC,ioos:station:NOAA.NDBC:FWYF1:1,2016-05-22T13:00:00Z,25.5910,-80.0970,25.7,1111122 
NDBC,ioos:station:NOAA.NDBC:FWYF1:1,2016-05-22T14:00:00Z,25.5910,-80.0970,25.6,1111122 
NDBC,ioos:station:NOAA.NDBC:FWYF1:1,2016-05-22T15:00:00Z,25.5910,-80.0970,26.3,1111122 
NDBC,ioos:station:NOAA.NDBC:FWYF1:1,2016-05-22T16:00:00Z,25.5910,-80.0970,27.6,1111122 
NDBC,ioos:station:NOAA.NDBC:FWYF1:1,2016-05-22T17:00:00Z,25.5910,-80.0970,28.3,1111122 
NDBC,ioos:station:NOAA.NDBC:FWYF1:1,2016-05-22T18:00:00Z,25.5910,-80.0970,27.4,1111122 
NDBC,ioos:station:NOAA.NDBC:FWYF1:1,2016-05-22T19:00:00Z,25.5910,-80.0970,28.5,1111122 
NDBC,ioos:station:NOAA.NDBC:FWYF1:1,2016-05-22T20:00:00Z,25.5910,-80.0970,28.4,1111122 
NDBC,ioos:station:NOAA.NDBC:FWYF1:1,2016-05-22T21:00:00Z,25.5910,-80.0970,28.3,1111122 
NDBC,ioos:station:NOAA.NDBC:FWYF1:1,2016-05-22T22:00:00Z,25.5910,-80.0970,29.1,1111122 
NDBC,ioos:station:NOAA.NDBC:FWYF1:1,2016-05-22T23:00:00Z,25.5910,-80.0970,30.9,1111122 
NDBC,ioos:station:NOAA.NDBC:FWYF1:1,2016-05-23T00:00:00Z,25.5910,-80.0970,29.9,1111122 
NDBC,ioos:station:NOAA.NDBC:FWYF1:1,2016-05-23T01:00:00Z,25.5910,-80.0970,28.9,1111122 
NDBC,ioos:station:NOAA.NDBC:FWYF1:1,2016-05-23T02:00:00Z,25.5910,-80.0970,28.1,1111122 
NDBC,ioos:station:NOAA.NDBC:FWYF1:1,2016-05-23T03:00:00Z,25.5910,-80.0970,27.8,1111122 
NDBC,ioos:station:NOAA.NDBC:FWYF1:1,2016-05-23T04:00:00Z,25.5910,-80.0970,27.5,1111122 
NDBC,ioos:station:NOAA.NDBC:FWYF1:1,2016-05-23T05:00:00Z,25.5910,-80.0970,27.0,1111122 
NDBC,ioos:station:NOAA.NDBC:FWYF1:1,2016-05-23T06:00:00Z,25.5910,-80.0970,27.0,1111122 
NDBC,ioos:station:NOAA.NDBC:FWYF1:1,2016-05-23T07:00:00Z,25.5910,-80.0970,26.6,1111122 
NDBC,ioos:station:NOAA.NDBC:FWYF1:1,2016-05-23T08:00:00Z,25.5910,-80.0970,26.2,1111122 
NDBC,ioos:station:NOAA.NDBC:FWYF1:1,2016-05-23T09:00:00Z,25.5910,-80.0970,26.1,1111122 
NDBC,ioos:station:NOAA.NDBC:FWYF1:1,2016-05-23T10:00:00Z,25.5910,-80.0970,26.1,1111122 
NDBC,ioos:station:NOAA.NDBC:FWYF1:1,2016-05-23T11:00:00Z,25.5910,-80.0970,26.2,1111122 
NDBC,ioos:station:NOAA.NDBC:FWYF1:1,2016-05-23T12:00:00Z,25.5910,-80.0970,26.5,1111122 
NDBC,ioos:station:NOAA.NDBC:FWYF1:1,2016-05-23T13:00:00Z,25.5910,-80.0970,25.9,1111122 
NDBC,ioos:station:NOAA.NDBC:FWYF1:1,2016-05-23T14:00:00Z,25.5910,-80.0970,26.1,1111122 
NDBC,ioos:station:NOAA.NDBC:FWYF1:1,2016-05-23T15:00:00Z,25.5910,-80.0970,26.3,1111122 
NDBC,ioos:station:NOAA.NDBC:FWYF1:1,2016-05-23T16:00:00Z,25.5910,-80.0970,26.3,1111122 
NDBC,ioos:station:NOAA.NDBC:FWYF1:1,2016-05-23T17:00:00Z,25.5910,-80.0970,26.5,1111122 
NDBC,ioos:station:NOAA.NDBC:FWYF1:1,2016-05-23T18:00:00Z,25.5910,-80.0970,26.7,1111122 
NDBC,ioos:station:NOAA.NDBC:FWYF1:1,2016-05-23T19:00:00Z,25.5910,-80.0970,26.7,1111122 
NDBC,ioos:station:NOAA.NDBC:FWYF1:1,2016-05-23T20:00:00Z,25.5910,-80.0970,26.7,1111122 
NDBC,ioos:station:NOAA.NDBC:FWYF1:1,2016-05-23T21:00:00Z,25.5910,-80.0970,27.4,1111122 
NDBC,ioos:station:NOAA.NDBC:FWYF1:1,2016-05-23T22:00:00Z,25.5910,-80.0970,27.3,1111122 
NDBC,ioos:station:NOAA.NDBC:FWYF1:1,2016-05-23T23:00:00Z,25.5910,-80.0970,28.3,1111122 
NDBC,ioos:station:NOAA.NDBC:FWYF1:1,2016-05-24T00:00:00Z,25.5910,-80.0970,27.6,1111122 
NDBC,ioos:station:NOAA.NDBC:FWYF1:1,2016-05-24T01:00:00Z,25.5910,-80.0970,26.5,1111122 
NDBC,ioos:station:NOAA.NDBC:FWYF1:1,2016-05-24T02:00:00Z,25.5910,-80.0970,26.8,1111122 
NDBC,ioos:station:NOAA.NDBC:FWYF1:1,2016-05-24T03:00:00Z,25.5910,-80.0970,26.9,1111122 
NDBC,ioos:station:NOAA.NDBC:FWYF1:1,2016-05-24T04:00:00Z,25.5910,-80.0970,27.0,1111122 
NDBC,ioos:station:NOAA.NDBC:FWYF1:1,2016-05-24T05:00:00Z,25.5910,-80.0970,27.0,1111122 
NDBC,ioos:station:NOAA.NDBC:FWYF1:1,2016-05-24T06:00:00Z,25.5910,-80.0970,27.0,1111122 
NDBC,ioos:station:NOAA.NDBC:FWYF1:1,2016-05-24T07:00:00Z,25.5910,-80.0970,27.3,1111122 
NDBC,ioos:station:NOAA.NDBC:FWYF1:1,2016-05-24T08:00:00Z,25.5910,-80.0970,27.2,1111122 
NDBC,ioos:station:NOAA.NDBC:FWYF1:1,2016-05-24T09:00:00Z,25.5910,-80.0970,27.0,1111122 
NDBC,ioos:station:NOAA.NDBC:FWYF1:1,2016-05-24T10:00:00Z,25.5910,-80.0970,26.5,1111122 
NDBC,ioos:station:NOAA.NDBC:FWYF1:1,2016-05-24T11:00:00Z,25.5910,-80.0970,26.5,1111122 
NDBC,ioos:station:NOAA.NDBC:FWYF1:1,2016-05-24T12:00:00Z,25.5910,-80.0970,27.0,1111122 
NDBC,ioos:station:NOAA.NDBC:FWYF1:1,2016-05-24T13:00:00Z,25.5910,-80.0970,27.0,1111122 
NDBC,ioos:station:NOAA.NDBC:FWYF1:1,2016-05-24T14:00:00Z,25.5910,-80.0970,26.8,1111122 
NDBC,ioos:station:NOAA.NDBC:FWYF1:1,2016-05-24T15:00:00Z,25.5910,-80.0970,27.0,1111122 
NDBC,ioos:station:NOAA.NDBC:FWYF1:1,2016-05-24T16:00:00Z,25.5910,-80.0970,27.1,1111122 
NDBC,ioos:station:NOAA.NDBC:FWYF1:1,2016-05-24T17:00:00Z,25.5910,-80.0970,27.5,1111122 
NDBC,ioos:station:NOAA.NDBC:FWYF1:1,2016-05-24T18:00:00Z,25.5910,-80.0970,27.7,1111122 
NDBC,ioos:station:NOAA.NDBC:FWYF1:1,2016-05-24T19:00:00Z,25.5910,-80.0970,27.5,1111122 
NDBC,ioos:station:NOAA.NDBC:FWYF1:1,2016-05-24T20:00:00Z,25.5910,-80.0970,27.6,1111122 
NDBC,ioos:station:NOAA.NDBC:FWYF1:1,2016-05-24T21:00:00Z,25.5910,-80.0970,27.6,1111122 
NDBC,ioos:station:NOAA.NDBC:FWYF1:1,2016-05-24T22:00:00Z,25.5910,-80.0970,27.6,1111122 
NDBC,ioos:station:NOAA.NDBC:FWYF1:1,2016-05-24T23:00:00Z,25.5910,-80.0970,27.8,1111122 
NDBC,ioos:station:NOAA.NDBC:FWYF1:1,2016-05-25T00:00:00Z,25.5910,-80.0970,25.9,1111122 
NDBC,ioos:station:NOAA.NDBC:FWYF1:1,2016-05-25T01:00:00Z,25.5910,-80.0970,27.3,1111122 
NDBC,ioos:station:NOAA.NDBC:FWYF1:1,2016-05-25T02:00:00Z,25.5910,-80.0970,27.6,1111122 
NDBC,ioos:station:NOAA.NDBC:FWYF1:1,2016-05-25T03:00:00Z,25.5910,-80.0970,27.7,1111122 
NDBC,ioos:station:NOAA.NDBC:FWYF1:1,2016-05-25T04:00:00Z,25.5910,-80.0970,27.5,1111122 
NDBC,ioos:station:NOAA.NDBC:FWYF1:1,2016-05-25T05:00:00Z,25.5910,-80.0970,27.6,1111122 
NDBC,ioos:station:NOAA.NDBC:FWYF1:1,2016-05-25T06:00:00Z,25.5910,-80.0970,27.5,1111122 
NDBC,ioos:station:NOAA.NDBC:FWYF1:1,2016-05-25T07:00:00Z,25.5910,-80.0970,27.3,1111122 
NDBC,ioos:station:NOAA.NDBC:FWYF1:1,2016-05-25T08:00:00Z,25.5910,-80.0970,27.4,1111122 
NDBC,ioos:station:NOAA.NDBC:FWYF1:1,2016-05-25T09:00:00Z,25.5910,-80.0970,27.3,1111122 
NDBC,ioos:station:NOAA.NDBC:FWYF1:1,2016-05-25T10:00:00Z,25.5910,-80.0970,26.9,1111122 
NDBC,ioos:station:NOAA.NDBC:FWYF1:1,2016-05-25T11:00:00Z,25.5910,-80.0970,26.7,1111122 
NDBC,ioos:station:NOAA.NDBC:FWYF1:1,2016-05-25T12:00:00Z,25.5910,-80.0970,26.7,1111122 
NDBC,ioos:station:NOAA.NDBC:FWYF1:1,2016-05-25T13:00:00Z,25.5910,-80.0970,26.7,1111122 
NDBC,ioos:station:NOAA.NDBC:FWYF1:1,2016-05-25T14:00:00Z,25.5910,-80.0970,26.8,1111122 
NDBC,ioos:station:NOAA.NDBC:FWYF1:1,2016-05-25T15:00:00Z,25.5910,-80.0970,26.7,1111122 
NDBC,ioos:station:NOAA.NDBC:FWYF1:1,2016-05-25T16:00:00Z,25.5910,-80.0970,26.7,1111122 
NDBC,ioos:station:NOAA.NDBC:FWYF1:1,2016-05-25T17:00:00Z,25.5910,-80.0970,26.6,1111122 
NDBC,ioos:station:NOAA.NDBC:FWYF1:1,2016-05-25T18:00:00Z,25.5910,-80.0970,26.6,1111122 
NDBC,ioos:station:NOAA.NDBC:FWYF1:1,2016-05-25T19:00:00Z,25.5910,-80.0970,26.5,1111122 
NDBC,ioos:station:NOAA.NDBC:FWYF1:1,2016-05-25T20:00:00Z,25.5910,-80.0970,26.5,1111122 
NDBC,ioos:station:NOAA.NDBC:FWYF1:1,2016-05-25T21:00:00Z,25.5910,-80.0970,26.5,1111122 
NDBC,ioos:station:NOAA.NDBC:FWYF1:1,2016-05-25T22:00:00Z,25.5910,-80.0970,26.5,1111122 
NDBC,ioos:station:NOAA.NDBC:FWYF1:1,2016-05-25T23:00:00Z,25.5910,-80.0970,26.4,1111122 
NDBC,ioos:station:NOAA.NDBC:FWYF1:1,2016-05-26T00:00:00Z,25.5910,-80.0970,26.2,1111122 
NDBC,ioos:station:NOAA.NDBC:FWYF1:1,2016-05-26T01:00:00Z,25.5910,-80.0970,26.3,1111122 
NDBC,ioos:station:NOAA.NDBC:FWYF1:1,2016-05-26T02:00:00Z,25.5910,-80.0970,26.2,1111122 
NDBC,ioos:station:NOAA.NDBC:FWYF1:1,2016-05-26T03:00:00Z,25.5910,-80.0970,26.2,1111122 
NDBC,ioos:station:NOAA.NDBC:FWYF1:1,2016-05-26T04:00:00Z,25.5910,-80.0970,26.1,1111122 
NDBC,ioos:station:NOAA.NDBC:FWYF1:1,2016-05-26T05:00:00Z,25.5910,-80.0970,25.9,1111122 
NDBC,ioos:station:NOAA.NDBC:FWYF1:1,2016-05-26T06:00:00Z,25.5910,-80.0970,25.7,1111122 
NDBC,ioos:station:NOAA.NDBC:FWYF1:1,2016-05-26T07:00:00Z,25.5910,-80.0970,25.7,1111122 
NDBC,ioos:station:NOAA.NDBC:FWYF1:1,2016-05-26T08:00:00Z,25.5910,-80.0970,25.6,1111122 
NDBC,ioos:station:NOAA.NDBC:FWYF1:1,2016-05-26T09:00:00Z,25.5910,-80.0970,25.7,1111122 
NDBC,ioos:station:NOAA.NDBC:FWYF1:1,2016-05-26T10:00:00Z,25.5910,-80.0970,25.7,1111122 
NDBC,ioos:station:NOAA.NDBC:FWYF1:1,2016-05-26T11:00:00Z,25.5910,-80.0970,25.6,1111122 
NDBC,ioos:station:NOAA.NDBC:FWYF1:1,2016-05-26T12:00:00Z,25.5910,-80.0970,26.0,1111122 